AirNav   Air Wisconsin pilot careers
 
 522 users online  

N72 Warwick Municipal Airport
Warwick, New York, USA

GOING TO WARWICK?


FAA INFORMATION EFFECTIVE 11 OCTOBER 2018

Location

FAA Identifier: N72
Lat/Long: 41-17-15.3370N / 074-17-13.5410W
41-17.255617N / 074-17.225683W
41.2875936 / -74.2870947
(estimated)
Elevation: 540 ft. / 164.6 m (surveyed)
Variation: 13W (1985)
From city: 3 miles NE of WARWICK, NY
Time zone: UTC -4 (UTC -5 during Standard Time)
Zip code: 10990

Airport Operations

Airport use: Open to the public
Activation date: 01/1940
Control tower: no
ARTCC: NEW YORK CENTER
FSS: NEW YORK FLIGHT SERVICE STATION
NOTAMs facility: ISP (NOTAM-D service available)
Attendance: IREG
Wind indicator: yes
Segmented circle: no
Lights: ACTVT LIRL RY 03R/21L - CTAF.

Airport Communications

CTAF/UNICOM: 123.0
WX ASOS at MGJ (13 nm N): 119.275 (845-457-1486)
WX ASOS at FWN (16 nm W): 118.525 (973-875-0859)

Nearby radio navigation aids

VOR radial/distance  VOR name  Freq  Var
HUOr129/15.5HUGUENOT VOR/DME116.1011W
SAXr052/17.4SPARTA VORTAC115.7011W
TEBr350/28.2TETERBORO VOR/DME108.4011W
IGNr235/30.8KINGSTON VOR/DME117.6012W
STWr067/31.6STILLWATER VOR/DME109.6011W
CMKr283/31.8CARMEL VOR/DME116.6012W
LGAr340/35.7LA GUARDIA VOR/DME113.1012W
BWZr051/38.0BROADWAY VOR/DME114.2011W

 
NDB name  Hdg/Dist  Freq  Var  ID
NEELY207/12.233514WSW ... .--
STANWYCK229/18.126112WSKU ... -.- ..-
CHATHAM024/33.425413WCAT -.-. .- -

Airport Services

Fuel available: 100LL
SELF SVC FUEL AVBL.
Parking: tiedowns
Airframe service: NONE
Powerplant service: NONE
Bottled oxygen: NONE
Bulk oxygen: NONE

Runway Information

Runway 3R/21L

Dimensions: 2150 x 28 ft. / 655 x 9 m
Surface: asphalt, in good condition
Runway edge lights: non-standard
RY 03R/21L NSTD LIRL HAS SPACING 400 FT APART.
RUNWAY 3R  RUNWAY 21L
Gradient: 0.2%0.2%
Traffic pattern: leftleft
Markings: numbers only, in good conditionnumbers only, in good condition
Runway end identifier lights: nono
Obstructions: 80 ft. tree, 1238 ft. from runway, 65 ft. right of centerline, 13:1 slope to clear47 ft. trees, 839 ft. from runway, 13:1 slope to clear
RWY 21L 34 FT TREES 14 FT FM THLD 61 FT LT.

Runway 8/26

Dimensions: 2250 x 80 ft. / 686 x 24 m
Surface: turf, in good condition
RUNWAY 8  RUNWAY 26
Gradient: 0.3%0.3%
Traffic pattern: leftleft
Runway end identifier lights: nono
Obstructions: 35 ft. tree, 2 ft. from runway, 66 ft. left of centerline28 ft. trees, 189 ft. from runway, 114 ft. left of centerline, 6:1 slope to clear

Runway 3L/21R

Dimensions: 2100 x 50 ft. / 640 x 15 m
Surface: turf, in good condition
RUNWAY 3L  RUNWAY 21R
Traffic pattern: leftleft
Obstructions: 68 ft. trees, 117 ft. left of centerline56 ft. trees, 38 ft. from runway, 54 ft. right of centerline

Airport Ownership and Management from official FAA records

Ownership: Publicly-owned
Owner: TOWN OF WARWICK
BOX 489
WARWICK, NY 10990
Phone 845-986-9544
Manager: DAVID MAC MILLAN
41 AIRPORT RD
WARWICK, NY 10990
Phone 845-987-1320

Airport Operational Statistics

Aircraft based on the field: 42
Single engine airplanes: 42
    
Aircraft operations: avg 86/week *
83% local general aviation
17% transient general aviation
* for 12-month period ending 21 August 2017

Additional Remarks

ARPT CLSD TO TSNT ACFT SS-SR.
NO PRACTICE LNDGS.
MOUNTAINS & TWRS IN CLOSE VICINITY OF ARPT.
RY 08 HAS 6 FT CHAIN LINK FENCE, 58 FT LEFT, PARALLEL TO RY.
FOR CD CTC NEW YORK APCH AT 516-683-2967.
DEER AND BIRD ACTIVITY NEAR MOVEMENT AREAS.
FOR CD CTC NEW YORK APCH AT 516-683-2967.
DEER AND BIRD ACTIVITY NEAR MOVEMENT AREAS.
SEAPLANE USE OF WICKHAM LAKE PROHIBITED.

Instrument Procedures

There are no published instrument procedures at N72.

Some nearby airports with instrument procedures:

06N - Randall Airport (10 nm NW)
4N1 - Greenwood Lake Airport (10 nm S)
KMGJ - Orange County Airport (13 nm N)
KSWF - Stewart International Airport (15 nm NE)
KFWN - Sussex Airport (16 nm W)
 
Loc | Ops | Rwys | IFR | FBO | Links
Com | Nav | Svcs | Stats | Notes


 
Area around N72 (Warwick Municipal Airport)
 
Road maps at: MapQuest Bing Google
 
Aerial photo
WARNING: Photo may not be current or correct
Aerial photo of N72 (Warwick Municipal Airport)
Photo taken 17-Aug-2011
looking southwest.

Do you have a better or more recent aerial photo of Warwick Municipal Airport that you would like to share? If so, please send us your photo.

 
Sectional chart

 
Airport distance calculator
Flying to Warwick Municipal Airport? Find the distance to fly.

From to N72

Sunrise and sunset
Times for 21-Oct-2018
 Local
(UTC-4)
 Zulu
(UTC)
Morning civil twilight06:4910:49
Sunrise07:1711:17
Sunset18:0722:07
Evening civil twilight18:3522:35

Current date and time
Zulu (UTC)  21-Oct-2018 11:56:16
Local (UTC-4)  21-Oct-2018 07:56:16
 
METAR
KMGJ 
14nm N 
SuperAWOS
211054Z AUTO 34011G21KT 10SM BKN110 07/M01 A2979 RMK AO2 SLP088 T00671011
KSWF 
16nm NE 
211045Z 31006KT 10SM BKN040 06/04 A2978
KFWN 
16nm W 
211053Z AUTO 35014G20KT 10SM FEW095 SCT120 06/M01 A2983 RMK AO2 PRESRR SLP101 T00611006
KCDW 
24nm S 
211053Z 32008G19KT 10SM OVC090 08/03 A2979 RMK AO2 SLP092 T00830028
K12N 
26nm SW 
211054Z AUTO VRB06G16KT 06/01 A2982 RMK AO1 PRESRR SLP103 T00610006
KTEB 
27nm SE 
211051Z 33010G18KT 10SM OVC075 09/04 A2976 RMK AO2 SLP077 T00890039
TAF
KSWF 
16nm NE 
210843Z 2109/2212 33010KT P6SM VCSH BKN040 FM211000 32012G21KT P6SM BKN040 BKN200 FM211300 32014G25KT P6SM SCT040 SCT130 BKN200 FM211500 32021G32KT P6SM SCT050 FM212300 31014G22KT P6SM SCT050 FM220200 29007KT P6SM SCT050 FM220800 26004KT P6SM FEW050 AMD NOT SKED
NOTAMs
Click for the latest NOTAMs
NOTAMs are issued by the DoD/FAA and will open in a separate window not controlled by AirNav.

 

 
 

FBO, Fuel Providers, and Aircraft Ground Support

  
 Business Name 
 
 Contact 
 
 Services / Description 
 
Fuel Prices
 
Comments
  
Warwick Municipal Airport 845-986-9544
no information available

If you are affiliated with Warwick Municipal Airport and would like to show here your services, contact info, web link, logo, and more, click here
100LL
SS $5.35 
 Updated 12-Sep-2018
 
   write
SS=Self service
Update Fuel Prices
 

Would you like to see your business listed on this page?

 If your business provides an interesting product or service to pilots, flight crews, aircraft, or users of the Warwick Municipal Airport, you should consider listing it here.  To start the listing process, click on the button below
 
Add a business
 

Other Pages about Warwick Municipal Airport

www.warwickairport.com
 
Update a link
 
Copyright © AirNav, LLC. All rights reserved. Privacy Policy  Contact